^^
Station Historical Data
Daily Summary for January 15, 2018 Units:  Metric    English   Both
« Previous Day
Next Day »
Daily Weekly Monthly Yearly Custom
  High: Low: Average:
Temperature: -17.8 °C -22 °C -21.6 °C
Dew Point: -17.8 °C -22.9 °C -22.4 °C
Humidity: Humidity% 87% 88%
Wind Speed: 0km/h 0km/h 4km/h
Wind Gust: 0km/h - -
Wind- - SSE
Pressure: 0 hPa 34476.3 hPa -
Precipitation: 0 mm    
Historical Graphs
 
 
Tabular Data for January 15, 2018
Time Temperature Dew Point Pressure Wind Wind Speed Wind Gust Humidity Rainfall Rate (Hourly) solar Conditions
-17.8 °C -17.8 °C 0 hPa Calm     Humidity% 0 mm SoftwareType W/m2 Conditions
00:01 -21.2 °C -22 °C 35048.5 hPa SSW 10.9 km/h 20.9 km/h 89% 0 mm WeatherDisplay:10.37 W/m2 FEW
00:09 -21.2 °C -22.1 °C 35048.5 hPa ESE 3.1 km/h 17.9 km/h 89% 0 mm WeatherDisplay:10.37 W/m2 FEW
00:14 -21.2 °C -22.2 °C 35048.5 hPa ESE 7.6 km/h 18.2 km/h 88% 0 mm WeatherDisplay:10.37 W/m2 FEW
00:21 -21.2 °C -22.1 °C 35048.5 hPa SE 0.5 km/h 9 km/h 89% 0 mm WeatherDisplay:10.37 W/m2 FEW
00:26 -21.3 °C -22.2 °C 35048.5 hPa Calm   6 km/h 88% 0 mm WeatherDisplay:10.37 W/m2 FEW
00:38 -21.3 °C -22.2 °C 35048.5 hPa SE 6.8 km/h 9 km/h 88% 0 mm WeatherDisplay:10.37 W/m2 FEW
00:43 -21.3 °C -22.2 °C 35048.5 hPa SE 4.3 km/h 15 km/h 88% 0 mm WeatherDisplay:10.37 W/m2 FEW
00:48 -21.3 °C -22.3 °C 35048.5 hPa SE 6.4 km/h 15 km/h 88% 0 mm WeatherDisplay:10.37 W/m2 FEW
00:53 -21.3 °C -22.1 °C 35048.5 hPa South 9.8 km/h 10.3 km/h 89% 0 mm WeatherDisplay:10.37 W/m2 FEW
00:58 -21.3 °C -22.2 °C 35048.5 hPa SSE 1.6 km/h 9 km/h 89% 0 mm WeatherDisplay:10.37 W/m2 FEW
01:08 -21.3 °C -22.2 °C 35038.3 hPa SE 4.2 km/h 9 km/h 89% 0 mm WeatherDisplay:10.37 W/m2 FEW
01:13 -21.3 °C -22.2 °C 35038.3 hPa ESE 0.5 km/h 7.7 km/h 89% 0 mm WeatherDisplay:10.37 W/m2 FEW
01:19 -21.3 °C -22.2 °C 35038.3 hPa SSE 6.3 km/h 10.3 km/h 89% 0 mm WeatherDisplay:10.37 W/m2 FEW
01:27 -21.3 °C -22.2 °C 35024.8 hPa SE 6.9 km/h 15 km/h 89% 0 mm WeatherDisplay:10.37 W/m2 FEW
01:34 -21.3 °C -22.2 °C 35024.8 hPa SE 5 km/h 11.9 km/h 89% 0 mm WeatherDisplay:10.37 W/m2 FEW
01:45 -21.4 °C -22.2 °C 35024.8 hPa SSE 7.7 km/h 17.9 km/h 89% 0 mm WeatherDisplay:10.37 W/m2 FEW
01:53 -21.4 °C -22.3 °C 35024.8 hPa ESE 6.9 km/h 7.7 km/h 88% 0 mm WeatherDisplay:10.37 W/m2 FEW
02:00 -21.4 °C -22.3 °C 35024.8 hPa South 4.3 km/h 15 km/h 88% 0 mm WeatherDisplay:10.37 W/m2 FEW
02:05 -21.4 °C -22.3 °C 35024.8 hPa Calm   6 km/h 88% 0 mm WeatherDisplay:10.37 W/m2 FEW
02:10 -21.4 °C -22.2 °C 35024.8 hPa WSW 0.8 km/h 15 km/h 89% 0 mm WeatherDisplay:10.37 W/m2 FEW
02:17 -21.4 °C -22.3 °C 35024.8 hPa ESE 1 km/h 9 km/h 88% 0 mm WeatherDisplay:10.37 W/m2 FEW
02:22 -21.4 °C -22.3 °C 35024.8 hPa Calm     88% 0 mm WeatherDisplay:10.37 W/m2 FEW
02:27 -21.4 °C -22.3 °C 35024.8 hPa Calm     88% 0 mm WeatherDisplay:10.37 W/m2 FEW
02:32 -21.4 °C -22.2 °C 35014.6 hPa ESE 1.8 km/h 9 km/h 89% 0 mm WeatherDisplay:10.37 W/m2 FEW
02:37 -21.3 °C -22.2 °C 35014.6 hPa ESE 1 km/h 9 km/h 89% 0 mm WeatherDisplay:10.37 W/m2 FEW
02:42 -21.3 °C -22.2 °C 35014.6 hPa SSE 5.1 km/h 20.9 km/h 89% 0 mm WeatherDisplay:10.37 W/m2 FEW
02:47 -21.3 °C -22.2 °C 35014.6 hPa Calm   15 km/h 89% 0 mm WeatherDisplay:10.37 W/m2 FEW
02:52 -21.3 °C -22.3 °C 35014.6 hPa SSE 11.9 km/h 15.6 km/h 88% 0 mm WeatherDisplay:10.37 W/m2 FEW
02:57 -21.3 °C -22.3 °C 35014.6 hPa ESE 5.6 km/h 10.3 km/h 88% 0 mm WeatherDisplay:10.37 W/m2 FEW
03:18 -21.4 °C -22.3 °C 35001.1 hPa South 0.5 km/h 2.6 km/h 88% 0 mm WeatherDisplay:10.37 W/m2 FEW
03:24 -21.3 °C -22.2 °C 35001.1 hPa South 2.6 km/h 7.7 km/h 89% 0 mm WeatherDisplay:10.37 W/m2 FEW
03:29 -21.3 °C -22.2 °C 35001.1 hPa SSE 2.9 km/h 12.9 km/h 89% 0 mm WeatherDisplay:10.37 W/m2 FEW
03:34 -21.3 °C -22.3 °C 35001.1 hPa South 2.3 km/h 9 km/h 88% 0 mm WeatherDisplay:10.37 W/m2 FEW
03:40 -21.4 °C -22.3 °C 35001.1 hPa Calm     88% 0 mm WeatherDisplay:10.37 W/m2 FEW
03:45 -21.4 °C -22.3 °C 35001.1 hPa SSE 6.8 km/h 17.9 km/h 88% 0 mm WeatherDisplay:10.37 W/m2 FEW
03:50 -21.4 °C -22.3 °C 35001.1 hPa Calm     88% 0 mm WeatherDisplay:10.37 W/m2 FEW
03:55 -21.4 °C -22.3 °C 35001.1 hPa SE 1 km/h 11.9 km/h 88% 0 mm WeatherDisplay:10.37 W/m2 FEW
04:00 -21.4 °C -22.3 °C 34990.9 hPa SSW 1.8 km/h 6 km/h 88% 0 mm WeatherDisplay:10.37 W/m2 FEW
04:05 -21.4 °C -22.3 °C 34990.9 hPa SSE 2.1 km/h 15 km/h 88% 0 mm WeatherDisplay:10.37 W/m2 FEW
04:10 -21.4 °C -22.3 °C 34990.9 hPa South 8 km/h 11.9 km/h 88% 0 mm WeatherDisplay:10.37 W/m2 FEW
04:15 -21.4 °C -22.3 °C 34990.9 hPa SE 3.7 km/h 9 km/h 88% 0 mm WeatherDisplay:10.37 W/m2 FEW
04:22 -21.4 °C -22.3 °C 34990.9 hPa SSE 1.8 km/h 15 km/h 88% 0 mm WeatherDisplay:10.37 W/m2 FEW
04:27 -21.4 °C -22.3 °C 34990.9 hPa South 3.9 km/h 11.9 km/h 88% 0 mm WeatherDisplay:10.37 W/m2 FEW
04:32 -21.4 °C -22.3 °C 34980.8 hPa SSE 5.5 km/h 9 km/h 88% 0 mm WeatherDisplay:10.37 W/m2 FEW
04:40 -21.4 °C -22.3 °C 34980.8 hPa Calm   9 km/h 88% 0 mm WeatherDisplay:10.37 W/m2 FEW
04:45 -21.4 °C -22.3 °C 34980.8 hPa Calm     88% 0 mm WeatherDisplay:10.37 W/m2 FEW
04:50 -21.4 °C -22.3 °C 34980.8 hPa SSE 2.3 km/h 9 km/h 88% 0 mm WeatherDisplay:10.37 W/m2 FEW
04:55 -21.4 °C -22.3 °C 34980.8 hPa Calm     88% 0 mm WeatherDisplay:10.37 W/m2 FEW
05:00 -21.4 °C -22.3 °C 34967.2 hPa Calm     88% 0 mm WeatherDisplay:10.37 W/m2 FEW
05:05 -21.4 °C -22.2 °C 34967.2 hPa SE 3.4 km/h 11.9 km/h 89% 0 mm WeatherDisplay:10.37 W/m2 FEW
05:20 -21.4 °C -22.3 °C 34957.1 hPa Calm     88% 0 mm WeatherDisplay:10.37 W/m2 FEW
05:25 -21.4 °C -22.3 °C 34957.1 hPa Calm   5.1 km/h 89% 0 mm WeatherDisplay:10.37 W/m2 FEW
05:35 -21.4 °C -22.3 °C 34957.1 hPa SSE 1.8 km/h 9 km/h 89% 0 mm WeatherDisplay:10.37 W/m2 FEW
05:40 -21.4 °C -22.3 °C 34946.9 hPa ESE 1.8 km/h 6 km/h 89% 0 mm WeatherDisplay:10.37 W/m2 FEW
05:46 -21.4 °C -22.2 °C 34946.9 hPa East 3.7 km/h 9 km/h 89% 0 mm WeatherDisplay:10.37 W/m2 FEW
05:52 -21.4 °C -22.2 °C 34946.9 hPa SE 6 km/h 17.9 km/h 89% 0 mm WeatherDisplay:10.37 W/m2 FEW
06:00 -21.4 °C -22.3 °C 34933.4 hPa East 1 km/h 9 km/h 89% 0 mm WeatherDisplay:10.37 W/m2 FEW
06:05 -21.4 °C -22.3 °C 34933.4 hPa Calm   9 km/h 89% 0 mm WeatherDisplay:10.37 W/m2 FEW
06:10 -21.4 °C -22.3 °C 34933.4 hPa Calm     89% 0 mm WeatherDisplay:10.37 W/m2 FEW
06:15 -21.4 °C -22.2 °C 34933.4 hPa Calm     89% 0 mm WeatherDisplay:10.37 W/m2 FEW
06:20 -21.3 °C -22.2 °C 34933.4 hPa Calm   6 km/h 89% 0 mm WeatherDisplay:10.37 W/m2 FEW
06:25 -21.3 °C -22.2 °C 34933.4 hPa ESE 3.1 km/h 9 km/h 89% 0 mm WeatherDisplay:10.37 W/m2 FEW
06:30 -21.3 °C -22.2 °C 34933.4 hPa ESE 8.2 km/h 9 km/h 89% 0 mm WeatherDisplay:10.37 W/m2 FEW
06:35 -21.3 °C -22.2 °C 34933.4 hPa ESE 5 km/h 9 km/h 89% 0 mm WeatherDisplay:10.37 W/m2 FEW
06:40 -21.3 °C -22.2 °C 34933.4 hPa SE 6.3 km/h 12.9 km/h 89% 0 mm WeatherDisplay:10.37 W/m2 FEW
06:45 -21.3 °C -22.2 °C 34933.4 hPa SE 5 km/h 9 km/h 89% 0 mm WeatherDisplay:10.37 W/m2 FEW
06:50 -21.3 °C -22.1 °C 34923.2 hPa SSE 3.1 km/h 9 km/h 89% 0 mm WeatherDisplay:10.37 W/m2 FEW
06:55 -21.3 °C -22.1 °C 34923.2 hPa South 5.6 km/h 11.9 km/h 89% 0 mm WeatherDisplay:10.37 W/m2 FEW
07:00 -21.2 °C -22.1 °C 34923.2 hPa SE 2.1 km/h 17.9 km/h 89% 0 mm WeatherDisplay:10.37 W/m2 FEW
07:07 -21.2 °C -22.1 °C 34909.7 hPa SE 5.1 km/h 20.9 km/h 89% 0 mm WeatherDisplay:10.37 W/m2 FEW
07:12 -21.2 °C -22 °C 34909.7 hPa ESE 1.8 km/h 9 km/h 89% 0 mm WeatherDisplay:10.37 W/m2 FEW
07:18 -21.2 °C -22 °C 34909.7 hPa Calm   6 km/h 89% 0 mm WeatherDisplay:10.37 W/m2 FEW
07:25 -21.1 °C -21.9 °C 34909.7 hPa Calm   3.1 km/h 89% 0 mm WeatherDisplay:10.37 W/m2 FEW
07:30 -21.1 °C -21.9 °C 34909.7 hPa SE 6.9 km/h 15 km/h 89% 0 mm WeatherDisplay:10.37 W/m2 FEW
07:35 -21.1 °C -21.9 °C 34909.7 hPa ESE 4.2 km/h 15 km/h 89% 0 mm WeatherDisplay:10.37 W/m2 FEW
07:44 -21 °C -21.8 °C 34909.7 hPa SSW 6.8 km/h 20.9 km/h 89% 0 mm WeatherDisplay:10.37 W/m2 FEW
07:49 -21 °C -21.8 °C 34899.5 hPa SE 1 km/h 12.9 km/h 89% 0 mm WeatherDisplay:10.37 W/m2 FEW
07:54 -21 °C -21.8 °C 34899.5 hPa Calm   15 km/h 89% 0 mm WeatherDisplay:10.37 W/m2 FEW
08:00 -21 °C -21.8 °C 34899.5 hPa ESE 0.5 km/h 9 km/h 89% 0 mm WeatherDisplay:10.37 W/m2 FEW
08:13 -20.9 °C -21.8 °C 34889.3 hPa ESE 4.2 km/h 11.9 km/h 89% 0 mm WeatherDisplay:10.37 W/m2 FEW
08:18 -20.9 °C -21.8 °C 34889.3 hPa Calm     89% 0 mm WeatherDisplay:10.37 W/m2 FEW
08:28 -20.9 °C -21.8 °C 34889.3 hPa ESE 6.9 km/h 23.3 km/h 89% 0 mm WeatherDisplay:10.37 W/m2 FEW
08:33 -20.9 °C -21.8 °C 34889.3 hPa ESE 3.9 km/h 17.9 km/h 89% 0 mm WeatherDisplay:10.37 W/m2 FEW
08:38 -20.9 °C -21.8 °C 34889.3 hPa Calm   9 km/h 89% 0 mm WeatherDisplay:10.37 W/m2 FEW
08:44 -20.9 °C -21.8 °C 34889.3 hPa South 1 km/h 3.1 km/h 89% 0 mm WeatherDisplay:10.37 W/m2 FEW
08:51 -20.9 °C -21.8 °C 34889.3 hPa Calm     89% 0 mm WeatherDisplay:10.37 W/m2 FEW
08:56 -20.9 °C -21.9 °C 34889.3 hPa South 3.4 km/h 11.9 km/h 88% 0 mm WeatherDisplay:10.37 W/m2 FEW
09:04 -21 °C -21.9 °C 34889.3 hPa South 3.1 km/h 11.9 km/h 88% 0 mm WeatherDisplay:10.37 W/m2 FEW
09:09 -21.1 °C -22 °C 34889.3 hPa South 3.7 km/h 11.9 km/h 88% 0 mm WeatherDisplay:10.37 W/m2 FEW
09:14 -21.1 °C -22.1 °C 34889.3 hPa SSE 12.2 km/h 23.8 km/h 88% 0 mm WeatherDisplay:10.37 W/m2 FEW
09:19 -21.2 °C -22.1 °C 34875.8 hPa South 14.8 km/h 23.8 km/h 88% 0 mm WeatherDisplay:10.37 W/m2 FEW
09:24 -21.2 °C -22.1 °C 34875.8 hPa SSE 5.5 km/h 9 km/h 88% 0 mm WeatherDisplay:10.37 W/m2 FEW
09:29 -21.2 °C -22.1 °C 34875.8 hPa SE 5 km/h 28.5 km/h 89% 0 mm WeatherDisplay:10.37 W/m2 FEW
09:34 -21.3 °C -22.1 °C 34889.3 hPa South 10.6 km/h 26.9 km/h 89% 0 mm WeatherDisplay:10.37 W/m2 FEW
09:39 -21.3 °C -22.2 °C 34889.3 hPa SSW 11.4 km/h 20.9 km/h 89% 0 mm WeatherDisplay:10.37 W/m2 FEW
09:47 -21.3 °C -22.2 °C 34889.3 hPa SSE 4.7 km/h 10.3 km/h 89% 0 mm WeatherDisplay:10.37 W/m2 FEW
09:52 -21.4 °C -22.2 °C 34889.3 hPa South 6.9 km/h 20.9 km/h 89% 0 mm WeatherDisplay:10.37 W/m2 FEW
10:02 -21.4 °C -22.4 °C 34889.3 hPa ESE 3.4 km/h 17.9 km/h 88% 0 mm WeatherDisplay:10.37 W/m2 FEW
10:16 -21.5 °C -22.4 °C 34875.8 hPa SSE 6.8 km/h 12.9 km/h 88% 0 mm WeatherDisplay:10.37 W/m2 FEW
10:21 -21.5 °C -22.4 °C 34875.8 hPa SSE 3.7 km/h 17.9 km/h 88% 0 mm WeatherDisplay:10.37 W/m2 FEW
10:36 -21.5 °C -22.3 °C 34875.8 hPa South 0.5 km/h 29.8 km/h 89% 0 mm WeatherDisplay:10.37 W/m2 FEW
10:41 -21.5 °C -22.3 °C 34875.8 hPa SSE 0.3 km/h 15 km/h 89% 0 mm WeatherDisplay:10.37 W/m2 FEW
10:46 -21.5 °C -22.3 °C 34865.6 hPa Calm     89% 0 mm WeatherDisplay:10.37 W/m2 FEW
10:53 -21.6 °C -22.4 °C 34865.6 hPa SSE 1.3 km/h 11.9 km/h 89% 0 mm WeatherDisplay:10.37 W/m2 FEW
11:03 -21.5 °C -22.3 °C 34865.6 hPa SSE 5 km/h 23.8 km/h 89% 0 mm WeatherDisplay:10.37 W/m2 FEW
11:08 -21.5 °C -22.3 °C 34865.6 hPa South 4.2 km/h 15 km/h 89% 0 mm WeatherDisplay:10.37 W/m2 FEW
11:18 -21.6 °C -22.4 °C 34865.6 hPa SSE 8 km/h 23.8 km/h 89% 0 mm WeatherDisplay:10.37 W/m2 FEW
11:24 -21.6 °C -22.4 °C 34865.6 hPa ENE 3.9 km/h 9 km/h 89% 0 mm WeatherDisplay:10.37 W/m2 FEW
11:29 -21.6 °C -22.4 °C 34865.6 hPa South 4.7 km/h 15 km/h 89% 0 mm WeatherDisplay:10.37 W/m2 FEW
11:39 -21.6 °C -22.4 °C 34852.1 hPa SSW 8 km/h 23.8 km/h 89% 0 mm WeatherDisplay:10.37 W/m2 FEW
11:44 -21.6 °C -22.4 °C 34852.1 hPa SE 3.7 km/h 9 km/h 89% 0 mm WeatherDisplay:10.37 W/m2 FEW
11:49 -21.6 °C -22.4 °C 34852.1 hPa SE 4.2 km/h 20.8 km/h 89% 0 mm WeatherDisplay:10.37 W/m2 FEW
11:54 -21.6 °C -22.4 °C 34852.1 hPa SW 6.3 km/h 17.9 km/h 90% 0 mm WeatherDisplay:10.37 W/m2 FEW
11:59 -21.6 °C -22.4 °C 34852.1 hPa SSE 3.4 km/h 10.3 km/h 89% 0 mm WeatherDisplay:10.37 W/m2 FEW
12:04 -21.6 °C -22.4 °C 34852.1 hPa Calm     90% 0 mm WeatherDisplay:10.37 W/m2 FEW
12:09 -21.6 °C -22.4 °C 34841.9 hPa South 5.5 km/h 9 km/h 90% 0 mm WeatherDisplay:10.37 W/m2 FEW
12:17 -21.6 °C -22.4 °C 34841.9 hPa SSE 2.9 km/h 17.9 km/h 90% 0 mm WeatherDisplay:10.37 W/m2 FEW
12:22 -21.6 °C -22.4 °C 34841.9 hPa SW 2.9 km/h 9 km/h 90% 0 mm WeatherDisplay:10.37 W/m2 FEW
12:27 -21.6 °C -22.4 °C 34841.9 hPa SE 10.6 km/h 15 km/h 90% 0 mm WeatherDisplay:10.37 W/m2 FEW
12:37 -21.6 °C -22.4 °C 34831.8 hPa SSE 7.7 km/h 23.8 km/h 90% 0 mm WeatherDisplay:10.37 W/m2 FEW
12:42 -21.6 °C -22.4 °C 34831.8 hPa Calm   9 km/h 90% 0 mm WeatherDisplay:10.37 W/m2 FEW
12:55 -21.6 °C -22.3 °C 34831.8 hPa Calm   6 km/h 91% 0 mm WeatherDisplay:10.37 W/m2 FEW
13:01 -21.6 °C -22.3 °C 34818.2 hPa SE 2.6 km/h 10.3 km/h 91% 0 mm WeatherDisplay:10.37 W/m2 FEW
13:06 -21.6 °C -22.3 °C 34818.2 hPa SSE 1 km/h 15 km/h 91% 0 mm WeatherDisplay:10.37 W/m2 FEW
13:11 -21.6 °C -22.3 °C 34818.2 hPa South 1 km/h 17.9 km/h 91% 0 mm WeatherDisplay:10.37 W/m2 FEW
13:16 -21.6 °C -22.3 °C 34808.1 hPa SE 1 km/h 32.8 km/h 91% 0 mm WeatherDisplay:10.37 W/m2 FEW
13:21 -21.6 °C -22.3 °C 34808.1 hPa ESE 5.1 km/h 23.8 km/h 91% 0 mm WeatherDisplay:10.37 W/m2 FEW
13:28 -21.6 °C -22.3 °C 34808.1 hPa South 2.1 km/h 11.9 km/h 91% 0 mm WeatherDisplay:10.37 W/m2 FEW
13:33 -21.6 °C -22.3 °C 34808.1 hPa East 0.3 km/h 9 km/h 91% 0 mm WeatherDisplay:10.37 W/m2 FEW
13:42 -21.7 °C -22.3 °C 34797.9 hPa ESE 6.8 km/h 26.9 km/h 91% 0 mm WeatherDisplay:10.37 W/m2 FEW
13:47 -21.7 °C -22.4 °C 34797.9 hPa SW 4.3 km/h 17.9 km/h 90% 0 mm WeatherDisplay:10.37 W/m2 FEW
13:52 -21.7 °C -22.4 °C 34797.9 hPa SSE 1.6 km/h 10.3 km/h 90% 0 mm WeatherDisplay:10.37 W/m2 FEW
14:02 -21.8 °C -22.5 °C 34797.9 hPa South 5.6 km/h 15 km/h 90% 0 mm WeatherDisplay:10.37 W/m2 FEW
14:07 -21.8 °C -22.6 °C 34797.9 hPa SE 9.3 km/h 20.9 km/h 90% 0 mm WeatherDisplay:10.37 W/m2 FEW
14:12 -21.8 °C -22.6 °C 34797.9 hPa SW 3.9 km/h 9 km/h 89% 0 mm WeatherDisplay:10.37 W/m2 FEW
14:21 -21.8 °C -22.6 °C 34784.4 hPa SSE 1.3 km/h 6 km/h 89% 0 mm WeatherDisplay:10.37 W/m2 FEW
14:30 -21.8 °C -22.6 °C 34774.2 hPa ESE 2.9 km/h 7.7 km/h 89% 0 mm WeatherDisplay:10.37 W/m2 FEW
14:35 -21.8 °C -22.6 °C 34774.2 hPa South 8.9 km/h 20.9 km/h 89% 0 mm WeatherDisplay:10.37 W/m2 FEW
14:40 -21.8 °C -22.6 °C 34774.2 hPa SE 1 km/h 9 km/h 89% 0 mm WeatherDisplay:10.37 W/m2 FEW
14:45 -21.8 °C -22.6 °C 34774.2 hPa SSE 4.3 km/h 11.9 km/h 89% 0 mm WeatherDisplay:10.37 W/m2 FEW
14:53 -21.8 °C -22.6 °C 34774.2 hPa SSE 3.1 km/h 11.9 km/h 89% 0 mm WeatherDisplay:10.37 W/m2 FEW
15:03 -21.8 °C -22.6 °C 34760.7 hPa South 1.8 km/h 9 km/h 89% 0 mm WeatherDisplay:10.37 W/m2 FEW
15:08 -21.8 °C -22.6 °C 34760.7 hPa Calm     89% 0 mm WeatherDisplay:10.37 W/m2 FEW
15:13 -21.7 °C -22.6 °C 34760.7 hPa SSE 3.1 km/h 9 km/h 89% 0 mm WeatherDisplay:10.37 W/m2 FEW
15:18 -21.8 °C -22.6 °C 34760.7 hPa SE 0.5 km/h 6 km/h 89% 0 mm WeatherDisplay:10.37 W/m2 FEW
15:23 -21.8 °C -22.6 °C 34750.5 hPa SE 9 km/h 15 km/h 89% 0 mm WeatherDisplay:10.37 W/m2 FEW
15:28 -21.8 °C -22.6 °C 34750.5 hPa SE 3.9 km/h 11.9 km/h 89% 0 mm WeatherDisplay:10.37 W/m2 FEW
15:33 -21.8 °C -22.6 °C 34750.5 hPa SE 7.6 km/h 9 km/h 89% 0 mm WeatherDisplay:10.37 W/m2 FEW
15:46 -21.8 °C -22.6 °C 34740.4 hPa SE 6.4 km/h 12.9 km/h 89% 0 mm WeatherDisplay:10.37 W/m2 FEW
15:51 -21.8 °C -22.7 °C 34740.4 hPa ESE 8 km/h 15 km/h 89% 0 mm WeatherDisplay:10.37 W/m2 FEW
15:56 -21.8 °C -22.7 °C 34740.4 hPa SSE 5.1 km/h 11.9 km/h 89% 0 mm WeatherDisplay:10.37 W/m2 FEW
16:04 -21.8 °C -22.7 °C 34740.4 hPa South 2.9 km/h 9 km/h 89% 0 mm WeatherDisplay:10.37 W/m2 FEW
16:09 -21.8 °C -22.7 °C 34726.8 hPa Calm   6 km/h 89% 0 mm WeatherDisplay:10.37 W/m2 FEW
16:14 -21.9 °C -22.7 °C 34726.8 hPa Calm     89% 0 mm WeatherDisplay:10.37 W/m2 FEW
16:20 -21.9 °C -22.7 °C 34726.8 hPa Calm     89% 0 mm WeatherDisplay:10.37 W/m2 FEW
16:25 -21.9 °C -22.7 °C 34716.7 hPa SE 3.1 km/h 9 km/h 89% 0 mm WeatherDisplay:10.37 W/m2 FEW
16:34 -21.9 °C -22.7 °C 34716.7 hPa SE 3.9 km/h 9 km/h 89% 0 mm WeatherDisplay:10.37 W/m2 FEW
16:41 -21.9 °C -22.7 °C 34703.1 hPa SSE 1.8 km/h 17.9 km/h 89% 0 mm WeatherDisplay:10.37 W/m2 FEW
16:46 -21.9 °C -22.7 °C 34703.1 hPa ESE 6 km/h 11.9 km/h 89% 0 mm WeatherDisplay:10.37 W/m2 FEW
16:56 -21.9 °C -22.7 °C 34703.1 hPa SSE 1.6 km/h 6 km/h 89% 0 mm WeatherDisplay:10.37 W/m2 FEW
17:01 -21.9 °C -22.7 °C 34703.1 hPa Calm   6 km/h 89% 0 mm WeatherDisplay:10.37 W/m2 FEW
17:06 -21.9 °C -22.7 °C 34693 hPa SSE 9 km/h 23.8 km/h 89% 0 mm WeatherDisplay:10.37 W/m2 FEW
17:11 -21.9 °C -22.7 °C 34693 hPa SSE 11.9 km/h 20.9 km/h 89% 0 mm WeatherDisplay:10.37 W/m2 FEW
17:21 -21.9 °C -22.7 °C 34693 hPa East 10.3 km/h 23.8 km/h 89% 0 mm WeatherDisplay:10.37 W/m2 FEW
17:29 -21.9 °C -22.7 °C 34682.8 hPa SE 7.2 km/h 17.9 km/h 89% 0 mm WeatherDisplay:10.37 W/m2 FEW
17:35 -21.9 °C -22.7 °C 34682.8 hPa SE 6 km/h 23.8 km/h 89% 0 mm WeatherDisplay:10.37 W/m2 FEW
17:40 -21.9 °C -22.7 °C 34682.8 hPa SE 1.3 km/h 9 km/h 89% 0 mm WeatherDisplay:10.37 W/m2 FEW
17:47 -21.9 °C -22.7 °C 34682.8 hPa SE 5 km/h 9 km/h 89% 0 mm WeatherDisplay:10.37 W/m2 FEW
17:52 -21.9 °C -22.8 °C 34669.3 hPa ESE 3.7 km/h 9 km/h 88% 0 mm WeatherDisplay:10.37 W/m2 FEW
17:57 -21.9 °C -22.7 °C 34669.3 hPa SE 3.4 km/h 20.9 km/h 89% 0 mm WeatherDisplay:10.37 W/m2 FEW
18:02 -21.9 °C -22.7 °C 34669.3 hPa SSE 10.1 km/h 12.9 km/h 89% 0 mm WeatherDisplay:10.37 W/m2 FEW
18:09 -21.9 °C -22.8 °C 34659.1 hPa SE 6 km/h 17.9 km/h 88% 0 mm WeatherDisplay:10.37 W/m2 FEW
18:15 -21.9 °C -22.8 °C 34659.1 hPa SE 4.7 km/h 9 km/h 88% 0 mm WeatherDisplay:10.37 W/m2 FEW
18:20 -21.9 °C -22.8 °C 34659.1 hPa SE 4.3 km/h 9 km/h 88% 0 mm WeatherDisplay:10.37 W/m2 FEW
18:25 -21.9 °C -22.8 °C 34659.1 hPa SE 1.8 km/h 7.7 km/h 88% 0 mm WeatherDisplay:10.37 W/m2 FEW
18:30 -21.9 °C -22.8 °C 34659.1 hPa SSE 6.8 km/h 20.9 km/h 88% 0 mm WeatherDisplay:10.37 W/m2 FEW
18:35 -21.8 °C -22.8 °C 34645.6 hPa SE 9.8 km/h 15 km/h 88% 0 mm WeatherDisplay:10.37 W/m2 FEW
18:40 -21.8 °C -22.8 °C 34645.6 hPa SSW 2.6 km/h 9 km/h 88% 0 mm WeatherDisplay:10.37 W/m2 FEW
18:45 -21.8 °C -22.7 °C 34635.4 hPa ESE 4.3 km/h 9 km/h 88% 0 mm WeatherDisplay:10.37 W/m2 FEW
18:50 -21.8 °C -22.7 °C 34635.4 hPa South 5.6 km/h 11.9 km/h 88% 0 mm WeatherDisplay:10.37 W/m2 FEW
18:55 -21.8 °C -22.7 °C 34635.4 hPa East 17.9 km/h 29.8 km/h 88% 0 mm WeatherDisplay:10.37 W/m2 FEW
19:00 -21.8 °C -22.8 °C 34625.2 hPa Calm     88% 0 mm WeatherDisplay:10.37 W/m2 FEW
19:05 -21.8 °C -22.7 °C 34625.2 hPa SE 5 km/h 11.9 km/h 88% 0 mm WeatherDisplay:10.37 W/m2 FEW
19:10 -21.8 °C -22.8 °C 34625.2 hPa SSE 10.3 km/h 29.8 km/h 88% 0 mm WeatherDisplay:10.37 W/m2 FEW
19:15 -21.8 °C -22.8 °C 34625.2 hPa SSW 7.2 km/h 11.9 km/h 88% 0 mm WeatherDisplay:10.37 W/m2 FEW
19:25 -21.8 °C -22.8 °C 34625.2 hPa East 2.3 km/h 6 km/h 88% 0 mm WeatherDisplay:10.37 W/m2 FEW
19:30 -21.8 °C -22.8 °C 34625.2 hPa South 5.5 km/h 9 km/h 88% 0 mm WeatherDisplay:10.37 W/m2 FEW
19:35 -21.8 °C -22.8 °C 34611.7 hPa SE 5.6 km/h 9 km/h 87% 0 mm WeatherDisplay:10.37 W/m2 FEW
19:40 -21.8 °C -22.8 °C 34611.7 hPa SSW 3.1 km/h 9 km/h 87% 0 mm WeatherDisplay:10.37 W/m2 FEW
19:45 -21.8 °C -22.8 °C 34611.7 hPa SSE 8.5 km/h 17.9 km/h 88% 0 mm WeatherDisplay:10.37 W/m2 FEW
19:50 -21.8 °C -22.8 °C 34611.7 hPa SSW 0.8 km/h 6 km/h 88% 0 mm WeatherDisplay:10.37 W/m2 FEW
19:55 -21.8 °C -22.8 °C 34611.7 hPa SE 0.8 km/h 9 km/h 88% 0 mm WeatherDisplay:10.37 W/m2 FEW
20:00 -21.8 °C -22.8 °C 34601.5 hPa ESE 6.8 km/h 23.8 km/h 88% 0 mm WeatherDisplay:10.37 W/m2 FEW
20:05 -21.8 °C -22.8 °C 34601.5 hPa SSE 8.9 km/h 20.9 km/h 87% 0 mm WeatherDisplay:10.37 W/m2 FEW
20:10 -21.9 °C -22.9 °C 34601.5 hPa SE 11.9 km/h 20.9 km/h 87% 0 mm WeatherDisplay:10.37 W/m2 FEW
20:25 -21.9 °C -22.8 °C 34591.4 hPa SE 3.7 km/h 11.9 km/h 88% 0 mm WeatherDisplay:10.37 W/m2 FEW
20:33 -21.9 °C -22.8 °C 34591.4 hPa SSW 0.8 km/h 6 km/h 88% 0 mm WeatherDisplay:10.37 W/m2 FEW
20:38 -21.8 °C -22.8 °C 34577.8 hPa SE 0.3 km/h 9 km/h 88% 0 mm WeatherDisplay:10.37 W/m2 FEW
20:46 -21.8 °C -22.8 °C 34577.8 hPa SSW 6.8 km/h 23.8 km/h 88% 0 mm WeatherDisplay:10.37 W/m2 FEW
20:51 -21.9 °C -22.9 °C 34577.8 hPa Calm     87% 0 mm WeatherDisplay:10.37 W/m2 FEW
20:56 -21.9 °C -22.8 °C 34577.8 hPa Calm     88% 0 mm WeatherDisplay:10.37 W/m2 FEW
21:01 -21.8 °C -22.8 °C 34567.7 hPa SE 6.3 km/h 12.9 km/h 88% 0 mm WeatherDisplay:10.37 W/m2 FEW
21:06 -21.8 °C -22.8 °C 34567.7 hPa SSE 5.6 km/h 11.9 km/h 88% 0 mm WeatherDisplay:10.37 W/m2 FEW
21:11 -21.9 °C -22.8 °C 34567.7 hPa South 7.6 km/h 11.9 km/h 88% 0 mm WeatherDisplay:10.37 W/m2 FEW
21:16 -21.9 °C -22.8 °C 34567.7 hPa ESE 7.7 km/h 11.9 km/h 88% 0 mm WeatherDisplay:10.37 W/m2 FEW
21:21 -21.9 °C -22.8 °C 34567.7 hPa South 3.4 km/h 12.9 km/h 88% 0 mm WeatherDisplay:10.37 W/m2 FEW
21:26 -21.9 °C -22.8 °C 34567.7 hPa SE 2.9 km/h 5.1 km/h 88% 0 mm WeatherDisplay:10.37 W/m2 FEW
21:33 -21.9 °C -22.8 °C 34554.1 hPa SE 5.5 km/h 15 km/h 88% 0 mm WeatherDisplay:10.37 W/m2 FEW
21:39 -21.9 °C -22.9 °C 34554.1 hPa SE 8.2 km/h 26.9 km/h 88% 0 mm WeatherDisplay:10.37 W/m2 FEW
21:44 -21.9 °C -22.9 °C 34544 hPa SSE 2.1 km/h 9 km/h 88% 0 mm WeatherDisplay:10.37 W/m2 FEW
21:51 -21.9 °C -22.8 °C 34544 hPa South 3.9 km/h 10.3 km/h 88% 0 mm WeatherDisplay:10.37 W/m2 FEW
22:01 -21.9 °C -22.9 °C 34544 hPa SW 3.1 km/h 17.9 km/h 88% 0 mm WeatherDisplay:10.37 W/m2 FEW
22:08 -22 °C -22.9 °C 34533.8 hPa South 1.6 km/h 12.9 km/h 88% 0 mm WeatherDisplay:10.37 W/m2 FEW
22:13 -22 °C -22.9 °C 34533.8 hPa South 11.9 km/h 20.9 km/h 88% 0 mm WeatherDisplay:10.37 W/m2 FEW
22:18 -22 °C -22.9 °C 34533.8 hPa SE 3.7 km/h 23.3 km/h 88% 0 mm WeatherDisplay:10.37 W/m2 FEW
22:23 -22 °C -22.9 °C 34533.8 hPa Calm   9 km/h 87% 0 mm WeatherDisplay:10.37 W/m2 FEW
22:29 -22 °C -22.9 °C 34520.3 hPa East 3.7 km/h 9 km/h 87% 0 mm WeatherDisplay:10.37 W/m2 FEW
22:34 -22 °C -22.9 °C 34520.3 hPa SSW 2.9 km/h 11.9 km/h 87% 0 mm WeatherDisplay:10.37 W/m2 FEW
22:46 -22 °C -22.9 °C 34510.1 hPa Calm   15 km/h 87% 0 mm WeatherDisplay:10.37 W/m2 FEW
22:48 -22 °C -22.9 °C 34510.1 hPa SSE 2.6 km/h 17.9 km/h 87% 0 mm WeatherDisplay:10.37 W/m2 FEW
22:49 -22 °C -22.9 °C 34510.1 hPa South 3.4 km/h 15 km/h 87% 0 mm WeatherDisplay:10.37 W/m2 FEW
22:51 -22 °C -22.9 °C 34510.1 hPa Calm   11.9 km/h 88% 0 mm WeatherDisplay:10.37 W/m2 FEW
22:52 -22 °C -22.9 °C 34510.1 hPa SSE 0.8 km/h 6 km/h 88% 0 mm WeatherDisplay:10.37 W/m2 FEW
22:53 -21.9 °C -22.9 °C 34510.1 hPa ENE 6.4 km/h 15 km/h 88% 0 mm WeatherDisplay:10.37 W/m2 FEW
22:54 -21.9 °C -22.9 °C 34510.1 hPa ENE 2.6 km/h 15 km/h 88% 0 mm WeatherDisplay:10.37 W/m2 FEW
22:59 -21.9 °C -22.9 °C 34510.1 hPa South 6.3 km/h 29.8 km/h 88% 0 mm WeatherDisplay:10.37 W/m2 FEW
23:00 -21.9 °C -22.9 °C 34510.1 hPa South 2.3 km/h 29.8 km/h 88% 0 mm WeatherDisplay:10.37 W/m2 FEW
23:06 -21.9 °C -22.9 °C 34510.1 hPa SE 8.2 km/h 20.9 km/h 87% 0 mm WeatherDisplay:10.37 W/m2 FEW
23:07 -21.9 °C -22.9 °C 34510.1 hPa SE 9.7 km/h 20.9 km/h 87% 0 mm WeatherDisplay:10.37 W/m2 FEW
23:12 -21.9 °C -22.9 °C 34496.6 hPa ESE 3.4 km/h 9 km/h 88% 0 mm WeatherDisplay:10.37 W/m2 FEW
23:14 -21.9 °C -22.9 °C 34496.6 hPa SSE 11.6 km/h 15 km/h 88% 0 mm WeatherDisplay:10.37 W/m2 FEW
23:21 -21.9 °C -22.9 °C 34496.6 hPa Calm     88% 0 mm WeatherDisplay:10.37 W/m2 FEW
23:23 -21.9 °C -22.9 °C 34486.4 hPa SE 5.5 km/h 5.5 km/h 88% 0 mm WeatherDisplay:10.37 W/m2 FEW
23:28 -21.9 °C -22.9 °C 34496.6 hPa SSE 4.7 km/h 11.9 km/h 88% 0 mm WeatherDisplay:10.37 W/m2 FEW
23:33 -21.9 °C -22.8 °C 34486.4 hPa SSE 4.2 km/h 5.1 km/h 88% 0 mm WeatherDisplay:10.37 W/m2 FEW
23:40 -21.9 °C -22.8 °C 34486.4 hPa SSE 9 km/h 23.8 km/h 88% 0 mm WeatherDisplay:10.37 W/m2 FEW
23:50 -21.9 °C -22.9 °C 34476.3 hPa SSE 6.3 km/h 11.9 km/h 88% 0 mm WeatherDisplay:10.37 W/m2 FEW
23:58 -21.9 °C -22.9 °C 34476.3 hPa SSE 10.6 km/h 20.9 km/h 87% 0 mm WeatherDisplay:10.37 W/m2 FEW
Tuulensuunkaari, Veikkola, Suomi
Compliments of Weather Underground - 2.25 mb